| time (UTC) | temp F | wind direction | speed MPH | gust MPH | rain 1hr in | rain 24hr in | rain mn in | humidity % | barometer mb |
| 20260505003603 | 70 | 249 | 2.0 | 6.0 | 0.10 | 0.44 | 0.44 | 57 | 998.8 |
| 20260505002703 | 69 | 249 | 1.0 | 4.0 | 0.17 | 0.44 | 0.44 | 61 | 998.4 |
| 20260505001804 | 69 | 299 | 3.0 | 12.0 | 0.35 | 0.44 | 0.44 | 61 | 998.1 |
| 20260505000903 | 70 | 230 | 7.0 | 14.0 | 0.37 | 0.44 | 0.44 | 58 | 997.6 |
| 20260505000003 | 68 | 234 | 9.0 | 19.0 | 0.37 | 0.44 | 0.44 | 56 | 997.1 |
| 20260504235404 | 66 | 253 | 9.0 | 16.0 | 0.37 | 0.44 | 0.44 | 62 | 997.2 |
| 20260504234504 | 64 | 241 | 8.0 | 22.0 | 0.34 | 0.41 | 0.41 | 69 | 997.2 |
| 20260504233604 | 61 | 204 | 5.0 | 13.0 | 0.27 | 0.34 | 0.34 | 69 | 997.4 |
| 20260504232704 | 63 | 296 | 13.0 | 39.0 | 0.20 | 0.27 | 0.27 | 64 | 998.5 |
| 20260504231804 | 67 | 303 | 12.0 | 23.0 | 0.02 | 0.09 | 0.09 | 62 | 998.3 |
| 20260504230904 | 67 | 313 | 3.0 | 8.0 | 0.03 | 0.07 | 0.07 | 67 | 997.8 |
| 20260504230004 | 66 | 15 | 1.0 | 2.0 | 0.07 | 0.07 | 0.07 | 65 | 997.3 |
| 20260504225425 | 65 | 29 | 1.0 | 2.0 | 0.07 | 0.07 | 0.07 | 66 | 997.3 |
| 20260504224504 | 65 | 32 | 1.0 | 3.0 | 0.07 | 0.07 | 0.07 | 70 | 997.4 |
| 20260504223625 | 65 | 10 | 3.0 | 5.0 | 0.07 | 0.07 | 0.07 | 71 | 997.5 |
| 20260504222724 | 65 | 348 | 7.0 | 15.0 | 0.07 | 0.07 | 0.07 | 68 | 997.7 |
| 20260504221825 | 65 | 334 | 16.0 | 34.0 | 0.07 | 0.07 | 0.07 | 64 | 998.1 |
| 20260504220924 | 69 | 313 | 21.0 | 39.0 | 0.04 | 0.04 | 0.05 | 58 | 998.3 |
| 20260504220003 | 81 | 229 | 8.0 | 19.0 | 0.00 | 0.00 | 0.00 | 28 | 997.4 |
| 20260504215403 | 81 | 226 | 10.0 | 21.0 | 0.00 | 0.00 | 0.00 | 27 | 997.1 |
| 20260504214524 | 82 | 227 | 10.0 | 21.0 | 0.00 | 0.00 | 0.00 | 26 | 997.2 |
| 20260504213603 | 82 | 221 | 13.0 | 23.0 | 0.00 | 0.00 | 0.00 | 26 | 997.2 |
| 20260504212724 | 83 | 222 | 9.0 | 21.0 | 0.00 | 0.00 | 0.00 | 27 | 997.3 |
| 20260504211803 | 84 | 236 | 9.0 | 19.0 | 0.00 | 0.00 | 0.00 | 25 | 997.3 |
| 20260504210903 | 82 | 224 | 10.0 | 22.0 | 0.00 | 0.00 | 0.00 | 26 | 997.3 |
| 20260504210004 | 83 | 222 | 12.0 | 22.0 | 0.00 | 0.00 | 0.00 | 26 | 997.6 |
| 20260504205403 | 83 | 223 | 11.0 | 21.0 | 0.00 | 0.00 | 0.00 | 27 | 997.6 |
| 20260504204504 | 83 | 227 | 9.0 | 20.0 | 0.00 | 0.00 | 0.00 | 27 | 997.7 |
| 20260504203604 | 83 | 235 | 7.0 | 21.0 | 0.00 | 0.00 | 0.00 | 26 | 998.1 |
| 20260504202703 | 83 | 224 | 9.0 | 21.0 | 0.00 | 0.00 | 0.00 | 25 | 998.2 |
| 20260504201824 | 83 | 236 | 7.0 | 20.0 | 0.00 | 0.00 | 0.00 | 27 | 998.1 |
| 20260504200903 | 82 | 223 | 7.0 | 15.0 | 0.00 | 0.00 | 0.00 | 27 | 998.4 |
| 20260504200004 | 82 | 225 | 9.0 | 21.0 | 0.00 | 0.00 | 0.00 | 27 | 998.6 |
| 20260504195403 | 82 | 230 | 8.0 | 21.0 | 0.00 | 0.00 | 0.00 | 30 | 998.5 |
| 20260504194503 | 82 | 225 | 9.0 | 21.0 | 0.00 | 0.00 | 0.00 | 29 | 998.5 |
| 20260504193603 | 82 | 220 | 10.0 | 26.0 | 0.00 | 0.00 | 0.00 | 28 | 998.6 |
| 20260504192703 | 82 | 219 | 11.0 | 21.0 | 0.00 | 0.00 | 0.00 | 30 | 998.7 |
| 20260504191803 | 82 | 222 | 10.0 | 24.0 | 0.00 | 0.00 | 0.00 | 28 | 998.7 |
| 20260504190903 | 82 | 220 | 10.0 | 23.0 | 0.00 | 0.00 | 0.00 | 28 | 998.8 |
| 20260504190003 | 82 | 221 | 12.0 | 24.0 | 0.00 | 0.00 | 0.00 | 29 | 998.8 |
| 20260504185424 | 82 | 223 | 10.0 | 22.0 | 0.00 | 0.00 | 0.00 | 30 | 998.9 |
| 20260504184503 | 81 | 223 | 13.0 | 21.0 | 0.00 | 0.00 | 0.00 | 27 | 998.9 |
| 20260504183604 | 82 | 220 | 11.0 | 22.0 | 0.00 | 0.00 | 0.00 | 31 | 998.9 |
| 20260504182703 | 82 | 217 | 11.0 | 19.0 | 0.00 | 0.00 | 0.00 | 31 | 998.9 |
| 20260504181824 | 81 | 218 | 11.0 | 20.0 | 0.00 | 0.00 | 0.00 | 26 | 998.8 |
| 20260504180903 | 81 | 214 | 10.0 | 19.0 | 0.00 | 0.00 | 0.00 | 27 | 998.9 |
| 20260504180003 | 80 | 216 | 12.0 | 20.0 | 0.00 | 0.00 | 0.00 | 25 | 998.8 |
| 20260504175424 | 80 | 221 | 12.0 | 20.0 | 0.00 | 0.00 | 0.00 | 30 | 998.8 |
| 20260504174503 | 80 | 222 | 10.0 | 19.0 | 0.00 | 0.00 | 0.00 | 31 | 999.0 |
| 20260504173603 | 79 | 214 | 11.0 | 20.0 | 0.00 | 0.00 | 0.00 | 35 | 999.1 |
| 20260504172724 | 79 | 222 | 11.0 | 17.0 | 0.00 | 0.00 | 0.00 | 34 | 999.2 |
| 20260504171803 | 78 | 227 | 10.0 | 18.0 | 0.00 | 0.00 | 0.00 | 35 | 999.3 |
| 20260504170903 | 78 | 218 | 12.0 | 21.0 | 0.00 | 0.00 | 0.00 | 35 | 999.3 |
| 20260504150925 | 73 | 225 | 15.0 | 24.0 | 0.00 | 0.00 | 0.00 | 42 | 1000.4 |
| 20260504140904 | 70 | 198 | 14.0 | 24.0 | 0.00 | 0.00 | 0.00 | 44 | 1000.8 |
| 20260504081825 | 51 | 201 | 5.0 | 9.0 | 0.00 | 0.00 | 0.00 | 65 | 1003.8 |
| 20260504080925 | 50 | 198 | 3.0 | 7.0 | 0.00 | 0.00 | 0.00 | 64 | 1003.8 |
| 20260504050004 | 56 | 225 | 3.0 | 5.0 | 0.00 | 0.00 | 0.00 | 56 | 1005.5 |
| 20260504045425 | 56 | 224 | 4.0 | 7.0 | 0.00 | 0.00 | 0.00 | 56 | 1005.5 |
| 20260504044504 | 56 | 224 | 5.0 | 7.0 | 0.00 | 0.00 | 0.00 | 56 | 1005.6 |
| 20260504043624 | 56 | 225 | 5.0 | 8.0 | 0.00 | 0.00 | 0.00 | 55 | 1005.7 |
| 20260504042725 | 56 | 225 | 5.0 | 7.0 | 0.00 | 0.00 | 0.00 | 55 | 1005.7 |
| 20260504041804 | 57 | 224 | 6.0 | 8.0 | 0.00 | 0.00 | 0.00 | 55 | 1005.8 |
| 20260504040904 | 57 | 224 | 5.0 | 7.0 | 0.00 | 0.00 | 0.00 | 54 | 1005.8 |
| 20260504040004 | 57 | 225 | 5.0 | 8.0 | 0.00 | 0.00 | 0.00 | 53 | 1005.9 |
| 20260504035403 | 57 | 224 | 6.0 | 8.0 | 0.00 | 0.00 | 0.00 | 53 | 1005.9 |
| 20260504034504 | 58 | 223 | 6.0 | 8.0 | 0.00 | 0.00 | 0.00 | 53 | 1006.0 |
| 20260504033604 | 58 | 225 | 6.0 | 8.0 | 0.00 | 0.00 | 0.00 | 52 | 1006.0 |
| 20260504032704 | 59 | 225 | 6.0 | 9.0 | 0.00 | 0.00 | 0.00 | 52 | 1006.1 |
| 20260504031804 | 59 | 226 | 6.0 | 9.0 | 0.00 | 0.00 | 0.00 | 52 | 1006.1 |
| 20260504030903 | 59 | 227 | 6.0 | 8.0 | 0.00 | 0.00 | 0.00 | 51 | 1006.2 |
| 20260504030004 | 59 | 226 | 5.0 | 8.0 | 0.00 | 0.00 | 0.00 | 51 | 1006.1 |
| 20260504025404 | 59 | 226 | 6.0 | 8.0 | 0.00 | 0.00 | 0.00 | 50 | 1006.0 |
| 20260504024526 | 60 | 226 | 6.0 | 9.0 | 0.00 | 0.00 | 0.00 | 48 | 1006.0 |
| 20260504023604 | 61 | 225 | 6.0 | 9.0 | 0.00 | 0.00 | 0.00 | 48 | 1006.0 |
| 20260504022704 | 61 | 226 | 6.0 | 8.0 | 0.00 | 0.00 | 0.00 | 48 | 1005.9 |
| 20260504021804 | 61 | 225 | 7.0 | 10.0 | 0.00 | 0.00 | 0.00 | 47 | 1005.9 |
| 20260504020905 | 62 | 223 | 7.0 | 10.0 | 0.00 | 0.00 | 0.00 | 46 | 1005.8 |
| 20260504020004 | 62 | 223 | 7.0 | 10.0 | 0.00 | 0.00 | 0.00 | 46 | 1005.8 |
| 20260504015404 | 62 | 224 | 8.0 | 11.0 | 0.00 | 0.00 | 0.00 | 45 | 1005.8 |
| 20260504014504 | 63 | 222 | 8.0 | 11.0 | 0.00 | 0.00 | 0.00 | 44 | 1005.8 |
| 20260504013604 | 64 | 223 | 7.0 | 11.0 | 0.00 | 0.00 | 0.00 | 42 | 1005.7 |
| 20260504012704 | 66 | 226 | 7.0 | 11.0 | 0.00 | 0.00 | 0.00 | 41 | 1005.7 |
| 20260504011804 | 66 | 226 | 8.0 | 13.0 | 0.00 | 0.00 | 0.00 | 40 | 1005.7 |
| 20260504010904 | 66 | 227 | 7.0 | 12.0 | 0.00 | 0.00 | 0.00 | 39 | 1005.6 |
| 20260504010004 | 68 | 226 | 7.0 | 12.0 | 0.00 | 0.00 | 0.00 | 38 | 1005.6 |
| 20260504005403 | 68 | 225 | 7.0 | 12.0 | 0.00 | 0.00 | 0.00 | 37 | 1005.5 |
| 20260504004503 | 69 | 225 | 6.0 | 11.0 | 0.00 | 0.00 | 0.00 | 36 | 1005.6 |